FOX-1D (AO-92) (43137 NORAD) Tracking and Keplerian Element Data

This shows tracking and keplerian element data for the satellite.

Feedback or suggestion? Click here.




ElementValue
Catalog43137
NameFOX-1D (AO-92)
Epoch Orbit18493
Epoch Day130.8711992
Epoch Year2021
RAAN205.2861
Inclination97.4078
Eccentricity0.000843
Argument of Perigee355.0214
Mean Anonmoly5.0939
Mean Motion15.25138892
Decay Rate1.194E-05
L11 43137U 18004AC 21130.87119920 .00001194 00000-0 50523-4 0 9999
L22 43137 97.4078 205.2861 0008430 355.0214 5.0939 15.25138892184939

Live tracking and technical data element details for FOX-1D (AO-92) (NORAD 43137). FOX-1D (AO-92) can be tracked NOW for your location showing map with azimuth and elevation plus other details from your city location.

Track the satellite on the map from your city or location and see movement details for azimuth, elevation, latitude, longitude, range, height, and movement on the map or in text.







IsCatalogInMostPopularTable: catalog: 43137, numindb: 1974
Update: records affected: 1



GetName: 43137 FOX-1D (AO-92)

Hit Count: updated at: Tue, 11 May 2021 20:48:42 GMT